Погода в Ольгинской

Россия / Краснодарский край     45°56′34″N   38°32′48″E
темп.,
°C
ветер,
м/с
пор.,
м/с
влажн.,
%
обл.,
%
осадки,
мм/ч
давл.,
гПа
погр.,
м
13 апреля, вт
вт1300:00+9юв3593100 0.0 1023143
03:00+9зсз2293100 0.1 102263
06:00+8з3590100 0.1 1022194
09:00+10зсз2380100 0.1 1023432
12:00+12юз017299 0.0 1022725
15:00+12юв1273100 0.1 1022478
18:00+11в128089 0.0 1022152
21:00+9в118772 0.0 102212
14 апреля, ср
ср1400:00+9сз1187100 0.0 102012
03:00+9сз1190100 0.0 102011
06:00+8ссз1192100 0.0 101910
09:00+11з1184100 0.0 1019286
12:00+12з2373100 0.0 1018756
15:00+13сз437159 0.1 1018827
18:00+11ссз337853 0.0 1017161
21:00+9ссз11822 0.0 101810
15 апреля, чт
чт1500:00+8св118361 0.0 101610
03:00+8вюв228596 0.0 101614
06:00+7юв339161 0.0 101641
09:00+12ююв34755 0.0 1016386
12:00+16зюз455496 0.0 10161023
15:00+13з347482 0.1 1016611
18:00+13з35761 0.3 1016369
21:00
16 апреля, пт
пт1600:00+7ююз36893 0.0 1016115
03:00+6юз3894100 0.0 1016172
06:00+6юз369611 0.0 1017140
09:00+10юз3481100 0.0 1018538
12:00+10ююз4680100 1.5 1018696
15:00+12ююз4572100 1.9 1018995
18:00+11з127610 0.1 101893
21:00+7ююз22895 0.1 101917
17 апреля, сб
сб1700:00+6ю368890 0.0 1020123
03:00+5ююз37943 0.0 1020171
06:00+5ююз36950 0.0 1020116
09:00+10юз33750 0.0 1021586
12:00+13зсз2353100 0.0 10201361
15:00+12ссз4465100 0.0 1021588
18:00+10сз34675 0.0 1021197
21:00+8ссз22685 0.0 102115